Powrót do katalogu

DELTA 1 DEB

AktywnyPO
NORAD 12288·DEBRIS·🇺🇸 United States

Wystrzelony Mar 5, 1978 z Vandenberg Space Force Base

Loading…

Następne Przeloty (najbliższe 24 godziny)

TLE

ŚwieżeSource: Space-Track

Epoka: Sep 13, 2026, 10:41 UTC

1 12288U 78026EG  26256.44575637  .00000660  00000-0  30860-3 0  9998
2 12288  99.1949 249.2532 0076226 267.0989 256.6477 14.22507356343658

Śledź DELTA 1 DEB w czasie rzeczywistym z AllMySat

Download on the App Store